Back to catalog

ATLAS 5 CENTAUR DEB

AliveHEO
NORAD 44668·DEBRIS·🇺🇸 United States

Launched Oct 17, 2018 from Cape Canaveral Space Force Station

Loading…

Next Passes (next 24 hours)

TLE

AgingSource: Space-Track

Epoch: Sep 3, 2026, 09:12 UTC

1 44668U 18079AE  26246.38343730 -.00000080  00000-0  00000-0 0  9993
2 44668  13.4899 351.0845 4557101  47.2792 342.9813  1.97451323 52376

Track ATLAS 5 CENTAUR DEB in real time with AllMySat

Download on the App Store